| time (UTC) | temp C | wind direction | speed KPH | gust KPH | rain 1hr cm | rain 24hr cm | rain mn cm | humidity % | barometer mb |
| 20260904201504 | 28 | 121 | 4.8 | 0.0 | 0.00 | 0.00 | 0.00 | 64 | 1009.7 |
| 20260904200003 | 28 | 145 | 3.2 | 0.0 | 0.00 | 0.00 | 0.00 | 65 | 1009.6 |
| 20260904194612 | 28 | 157 | 4.8 | 0.0 | 0.00 | 0.00 | 0.00 | 66 | 1009.9 |
| 20260904191506 | 27 | 155 | 8.0 | 0.0 | 0.00 | 0.00 | 0.00 | 69 | 1010.3 |
| 20260904190002 | 28 | 174 | 6.4 | 0.0 | 0.00 | 0.00 | 0.00 | 64 | 1010.2 |
| 20260904184615 | 28 | 172 | 4.8 | 0.0 | 0.00 | 0.00 | 0.00 | 65 | 1010.3 |
| 20260904181525 | 28 | 175 | 8.0 | 0.0 | 0.00 | 0.00 | 0.00 | 65 | 1010.4 |
| 20260904180039 | 28 | 204 | 8.0 | 0.0 | 0.00 | 0.00 | 0.00 | 65 | 1010.5 |
| 20260904174521 | 28 | 215 | 6.4 | 0.0 | 0.00 | 0.00 | 0.00 | 64 | 1010.5 |
| 20260904173029 | 28 | 173 | 8.0 | 0.0 | 0.00 | 0.00 | 0.00 | 65 | 1010.9 |
| 20260904171539 | 28 | 167 | 8.0 | 0.0 | 0.00 | 0.00 | 0.00 | 65 | 1010.9 |
| 20260904170017 | 28 | 188 | 6.4 | 0.0 | 0.00 | 0.00 | 0.00 | 66 | 1011.0 |
| 20260904164517 | 28 | 140 | 4.8 | 0.0 | 0.00 | 0.00 | 0.00 | 67 | 1011.0 |
| 20260904163014 | 28 | 149 | 6.4 | 0.0 | 0.00 | 0.00 | 0.00 | 68 | 1011.0 |
| 20260904161513 | 27 | 184 | 9.7 | 0.0 | 0.00 | 0.00 | 0.00 | 70 | 1010.9 |
| 20260904160013 | 27 | 181 | 9.7 | 0.0 | 0.00 | 0.00 | 0.00 | 71 | 1010.7 |
| 20260904154522 | 27 | 102 | 6.4 | 0.0 | 0.00 | 0.00 | 0.00 | 71 | 1010.9 |
| 20260904153009 | 26 | 163 | 6.4 | 0.0 | 0.00 | 0.00 | 0.00 | 74 | 1010.7 |
| 20260904151510 | 27 | 192 | 8.0 | 0.0 | 0.00 | 0.00 | 0.00 | 72 | 1010.5 |
| 20260904150002 | 26 | 189 | 6.4 | 0.0 | 0.00 | 0.00 | 0.00 | 78 | 1010.7 |
| 20260904144501 | 25 | 179 | 9.7 | 0.0 | 0.00 | 0.00 | 0.00 | 80 | 1010.7 |
| 20260904143101 | 25 | 161 | 8.0 | 0.0 | 0.00 | 0.00 | 0.00 | 83 | 1010.6 |
| 20260904141559 | 25 | 153 | 8.0 | 0.0 | 0.00 | 0.00 | 0.00 | 84 | 1010.7 |
| 20260904140058 | 24 | 151 | 8.0 | 0.0 | 0.00 | 0.00 | 0.00 | 86 | 1010.6 |
| 20260904134602 | 23 | 181 | 9.7 | 0.0 | 0.00 | 0.00 | 0.00 | 88 | 1010.4 |
| 20260904133102 | 23 | 150 | 8.0 | 0.0 | 0.00 | 0.00 | 0.00 | 88 | 1010.2 |
| 20260904131556 | 23 | 154 | 9.7 | 0.0 | 0.00 | 0.00 | 0.00 | 89 | 1010.0 |
| 20260904130051 | 23 | 155 | 9.7 | 0.0 | 0.00 | 0.00 | 0.00 | 89 | 1009.8 |
| 20260904124551 | 23 | 165 | 8.0 | 0.0 | 0.00 | 0.00 | 0.00 | 90 | 1009.4 |
| 20260904123048 | 23 | 140 | 8.0 | 0.0 | 0.00 | 0.00 | 0.00 | 89 | 1009.2 |
| 20260904121547 | 23 | 168 | 6.4 | 0.0 | 0.00 | 0.00 | 0.00 | 89 | 1009.1 |
| 20260904120055 | 23 | 153 | 4.8 | 0.0 | 0.00 | 0.00 | 0.00 | 89 | 1009.0 |
| 20260904114548 | 23 | 159 | 4.8 | 0.0 | 0.00 | 0.00 | 0.00 | 88 | 1008.8 |
| 20260904113043 | 23 | 183 | 6.4 | 0.0 | 0.00 | 0.00 | 0.00 | 87 | 1008.5 |
| 20260904111540 | 23 | 196 | 9.7 | 0.0 | 0.00 | 0.00 | 0.00 | 87 | 1008.3 |
| 20260904110039 | 23 | 203 | 9.7 | 0.0 | 0.00 | 0.00 | 0.00 | 86 | 1008.3 |
| 20260904104602 | 23 | 180 | 8.0 | 0.0 | 0.00 | 0.00 | 0.00 | 86 | 1008.1 |
| 20260904103039 | 23 | 196 | 8.0 | 0.0 | 0.00 | 0.00 | 0.00 | 85 | 1008.2 |
| 20260904101541 | 23 | 173 | 11.3 | 0.0 | 0.00 | 0.00 | 0.00 | 85 | 1008.1 |
| 20260904100042 | 23 | 189 | 11.3 | 0.0 | 0.00 | 0.00 | 0.00 | 85 | 1008.1 |
| 20260904094549 | 23 | 186 | 11.3 | 0.0 | 0.00 | 0.00 | 0.00 | 86 | 1008.3 |
| 20260904093036 | 23 | 162 | 9.7 | 0.0 | 0.00 | 0.00 | 0.00 | 86 | 1008.3 |
| 20260904091535 | 23 | 184 | 11.3 | 0.0 | 0.00 | 0.00 | 0.00 | 86 | 1008.2 |
| 20260904090031 | 23 | 175 | 9.7 | 0.0 | 0.00 | 0.00 | 0.00 | 86 | 1008.2 |
| 20260904084531 | 23 | 161 | 8.0 | 0.0 | 0.00 | 0.00 | 0.00 | 86 | 1008.0 |
| 20260904083030 | 23 | 165 | 11.3 | 0.0 | 0.00 | 0.00 | 0.00 | 86 | 1008.1 |
| 20260904081528 | 23 | 163 | 8.0 | 0.0 | 0.00 | 0.00 | 0.00 | 86 | 1008.0 |
| 20260904080030 | 23 | 150 | 9.7 | 0.0 | 0.00 | 0.00 | 0.00 | 85 | 1008.2 |
| 20260904074526 | 23 | 171 | 9.7 | 0.0 | 0.00 | 0.00 | 0.00 | 84 | 1008.2 |
| 20260904073031 | 23 | 182 | 11.3 | 0.0 | 0.00 | 0.00 | 0.00 | 83 | 1008.3 |
| 20260904071521 | 23 | 169 | 11.3 | 0.0 | 0.00 | 0.00 | 0.00 | 83 | 1008.3 |
| 20260904070035 | 24 | 186 | 12.9 | 0.0 | 0.00 | 0.00 | 0.00 | 82 | 1008.4 |
| 20260904064516 | 24 | 173 | 11.3 | 0.0 | 0.00 | 0.00 | 0.00 | 82 | 1008.7 |
| 20260904063015 | 24 | 174 | 12.9 | 0.0 | 0.00 | 0.00 | 0.00 | 81 | 1008.7 |
| 20260904061513 | 24 | 170 | 12.9 | 0.0 | 0.00 | 0.00 | 0.00 | 81 | 1008.8 |
| 20260904060009 | 25 | 167 | 11.3 | 0.0 | 0.00 | 0.00 | 0.00 | 80 | 1008.9 |
| 20260904054506 | 25 | 148 | 12.9 | 0.0 | 0.00 | 0.00 | 0.00 | 79 | 1008.8 |
| 20260904053006 | 25 | 139 | 14.5 | 0.0 | 0.00 | 0.00 | 0.00 | 79 | 1008.6 |
| 20260904051611 | 25 | 176 | 16.1 | 0.0 | 0.00 | 0.00 | 0.00 | 77 | 1008.4 |
| 20260904050056 | 26 | 165 | 11.3 | 0.0 | 0.00 | 0.00 | 0.00 | 73 | 1008.4 |
| 20260904044604 | 26 | 153 | 9.7 | 0.0 | 0.00 | 0.00 | 0.00 | 68 | 1008.8 |
| 20260904043102 | 26 | 159 | 8.0 | 0.0 | 0.00 | 0.00 | 0.00 | 67 | 1008.6 |
| 20260904041557 | 26 | 163 | 9.7 | 0.0 | 0.00 | 0.00 | 0.00 | 66 | 1008.2 |
| 20260904040054 | 27 | 159 | 9.7 | 0.0 | 0.00 | 0.00 | 0.00 | 65 | 1008.2 |
| 20260904034554 | 27 | 175 | 8.0 | 0.0 | 0.00 | 0.00 | 0.00 | 65 | 1008.6 |
| 20260904033104 | 27 | 146 | 6.4 | 0.0 | 0.00 | 0.00 | 0.00 | 64 | 1008.6 |
| 20260904031553 | 27 | 105 | 4.8 | 0.0 | 0.00 | 0.00 | 0.00 | 64 | 1008.3 |
| 20260904030052 | 27 | 113 | 6.4 | 0.0 | 0.00 | 0.00 | 0.00 | 63 | 1008.2 |
| 20260904024602 | 27 | 87 | 6.4 | 0.0 | 0.00 | 0.00 | 0.00 | 62 | 1008.2 |
| 20260904023100 | 27 | 157 | 6.4 | 0.0 | 0.00 | 0.00 | 0.00 | 61 | 1007.9 |
| 20260904021550 | 28 | 108 | 4.8 | 0.0 | 0.00 | 0.00 | 0.00 | 62 | 1007.7 |
| 20260904020051 | 28 | 96 | 4.8 | 0.0 | 0.00 | 0.00 | 0.00 | 62 | 1007.2 |
| 20260904014603 | 28 | 92 | 6.4 | 0.0 | 0.00 | 0.00 | 0.00 | 60 | 1007.2 |
| 20260904013050 | 29 | 128 | 4.8 | 0.0 | 0.00 | 0.00 | 0.00 | 58 | 1006.9 |
| 20260904011550 | 30 | 146 | 4.8 | 0.0 | 0.00 | 0.00 | 0.00 | 55 | 1006.7 |
| 20260904010050 | 31 | 115 | 4.8 | 0.0 | 0.00 | 0.00 | 0.00 | 52 | 1006.5 |
| 20260904004549 | 31 | 124 | 6.4 | 0.0 | 0.00 | 0.00 | 0.00 | 50 | 1006.6 |
| 20260904003050 | 32 | 134 | 3.2 | 0.0 | 0.00 | 0.00 | 0.00 | 49 | 1006.1 |
| 20260904001554 | 33 | 118 | 4.8 | 0.0 | 0.00 | 0.00 | 0.00 | 46 | 1005.8 |
| 20260904000110 | 33 | 132 | 4.8 | 0.0 | 0.00 | 0.00 | 0.00 | 44 | 1005.8 |
| 20260903234547 | 33 | 116 | 3.2 | 0.0 | 0.00 | 0.00 | 0.00 | 43 | 1005.9 |
| 20260903233109 | 34 | 91 | 3.2 | 0.0 | 0.00 | 0.00 | 0.00 | 44 | 1005.9 |
| 20260903231548 | 34 | 91 | 3.2 | 0.0 | 0.00 | 0.00 | 0.00 | 42 | 1005.9 |
| 20260903230105 | 35 | 115 | 6.4 | 0.0 | 0.00 | 0.00 | 0.00 | 41 | 1005.5 |
| 20260903224559 | 35 | 102 | 8.0 | 0.0 | 0.00 | 0.00 | 0.00 | 41 | 1005.5 |
| 20260903223111 | 35 | 174 | 4.8 | 0.0 | 0.00 | 0.00 | 0.00 | 41 | 1005.3 |
| 20260903221544 | 35 | 120 | 6.4 | 0.0 | 0.00 | 0.00 | 0.00 | 42 | 1005.6 |
| 20260903220042 | 33 | 133 | 1.6 | 0.0 | 0.00 | 0.00 | 0.00 | 45 | 1005.8 |
| 20260903214548 | 33 | 174 | 4.8 | 0.0 | 0.00 | 0.00 | 0.00 | 45 | 1005.8 |
| 20260903213053 | 33 | 72 | 3.2 | 0.0 | 0.00 | 0.00 | 0.00 | 43 | 1005.9 |
| 20260903211543 | 35 | 102 | 4.8 | 0.0 | 0.00 | 0.00 | 0.00 | 39 | 1005.9 |
| 20260903210059 | 36 | 135 | 4.8 | 0.0 | 0.00 | 0.00 | 0.00 | 40 | 1005.8 |
| 20260903204541 | 35 | 144 | 4.8 | 0.0 | 0.00 | 0.00 | 0.00 | 43 | 1006.2 |
| 20260903203037 | 35 | 165 | 4.8 | 0.0 | 0.00 | 0.00 | 0.00 | 42 | 1006.3 |